Regional Weather Roundup
Issued by NWS Bismarck, ND

Home | Current Version | Previous Version | Text Only | Print | Product List | Glossary On
Versions: 1 2 3 4 5 6 7 8 9 10 11 12 13 14 15 16 17 18 19 20 21 22 23 24 25 26 27 28 29 30 31 32 33 34 35 36 37 38 39 40 41 42 43 44 45 46 47 48 49 50
532
ASUS43 KBIS 232210
RWRBIS

NWR BROADCAST TEXT
NATIONAL WEATHER SERVICE BISMARCK ND
500 PM CDT MON APR 23 2018

NOTE: "FAIR" INDICATES FEW OR NO CLOUDS BELOW 12,000 FEET WITH NO
SIGNIFICANT WEATHER AND/OR OBSTRUCTIONS TO VISIBILITY.


CITY           SKY/WX    TMP DP  RH WIND       PRES   REMARKS
WILLISTON      CLOUDY    51  27  39 N17       30.30S
MINOT          CLOUDY    54  34  46 NW14      30.22F
MINOT AFB      NOT AVBL
BISMARCK       CLOUDY    62  31  31 N15G25    30.16S
DICKINSON      CLOUDY    50  33  52 N22G28    30.19S
GARRISON         N/A     53  36  52 N10G17    30.22S
HETTINGER ARPT CLOUDY    54  31  41 NE30G40   30.11F
JAMESTOWN      MOSUNNY   64  38  38 NE15      30.14F
CARRINGTON     FAIR      61  34  36 NE12G17   30.20S
HAZEN          CLOUDY    54  36  50 N17       30.24R
LINTON           N/A    N/A N/A N/A NE17G24   30.12S
MANDAN         CLOUDY    61  32  33 NE20G25   30.17S
OAKES            N/A     64  46  52 NE15      30.12F
RUGBY          FAIR      55  36  47 NW16      30.20S
STANLEY          N/A     48  36  61 N17       30.28R HAZE
TIOGA          FAIR      50  30  46 N20       30.28S
WATFORD CITY   LGT RAIN  43  39  87 N13G21    30.29S
$$

CITY           SKY/WX    TMP DP  RH WIND       PRES   REMARKS
GRAND FORKS    FAIR      63  36  36 VRB6      30.16F
GRAND FORKS AF NOT AVBL
DEVILS LAKE    FAIR      58  35  42 N16       30.19F
FARGO          FAIR      67  39  35 N15G21    30.14F
CANDO          FAIR      57  34  41 N15       30.22S
CAVALIER         N/A     63  34  34 NW7G16    30.16F
GRAFTON        FAIR      61  34  36 N9G17     30.18F
GWINNER          N/A     64  48  55 N15       30.12F
LANGDON        FAIR      57  37  47 NW10      30.19S
ROLLA          MOCLDY    54  36  50 N18       30.21S
WALHALLA       FAIR      61  36  39 NW10G20   30.17F
$$

CITY           SKY/WX    TMP DP  RH WIND       PRES   REMARKS
ABERDEEN       CLOUDY    71  36  27 E9        30.09F
MOBRIDGE       FAIR      72  41  32 S12       30.04F
BUFFALO          N/A     54  31  41 NE40G51   29.97F
RAPID CITY     CLOUDY    64  41  42 SE9       30.00S
GLASGOW        CLOUDY    52  20  28 N14       30.35S
SIDNEY         RAIN      43  37  79 N13       30.33R
WOLF POINT     CLOUDY    53  24  32 N14       30.33F
GLENDIVE       LGT RAIN  38  35  89 N16       30.32S
MILES CITY     HVY SNOW  32  32 100 NW13      30.33R VSB 1/4
BAKER          CLOUDY    44  34  67 N28G45    30.19F
$$

CITY           SKY/WX    TMP DP  RH WIND       PRES   REMARKS
BILLINGS       FLURRIES  34  34 100 NW9       30.41R
GREAT FALLS    PTSUNNY   49  24  37 E9        30.41S
REGINA         PTSUNNY   54  19  26 N20G30    30.31F
ESTEVAN        PTSUNNY   52  19  28 NW21G28   30.29R
$$





USA.gov is the U.S. government's official web portal to all federal, state and local government web resources and services.